Powrót do katalogu

SL-14 DEB

AktywnyPO
NORAD 26005·DEBRIS·🇷🇺 Russia

Wystrzelony Sep 28, 1991 z Plesetsk Cosmodrome

Loading…

Następne Przeloty (najbliższe 24 godziny)

TLE

ŚwieżeSource: Space-Track

Epoka: Sep 14, 2026, 03:59 UTC

1 26005U 91068Q   26257.16663686  .00000184  00000-0  97252-3 0  9992
2 26005  82.6073 333.9085 0055950 297.7667  88.0246 12.61879064239590

Śledź SL-14 DEB w czasie rzeczywistym z AllMySat

Download on the App Store